Showing default

QIANFAN-30, 61563

Orbit data source: Space-Track

QIANFAN-30, 61563 is a Chinese payload satellite in LEO that was launched on Tue, 15 Oct 2024 UTC via a CHANG ZHENG 6A launch vehicle from the Taiyaun Space Center, China (TSC). Payload-class satellites include a variety of spacecraft equipped with specific instruments for various scientific and technological missions. These include communications satellites like Starlink; space stations such as the ISS; scientific satellites like the Hubble; Earth observation satellites from companies like Planet Labs, Umbra, and HawkEye 360; GPS; miniature CubeSats for education and research; and military/defense satellites.

Loading next visibility...
Identifier
61563, 2024-185M
Orbit
LEO
Country
Flag of CNCN / PRC
Related business
Manufacturer
GESIH/SECM
Mission
Operational Commercial Communications
Bus & Motor
QIANFAN, Unknown motor
Mass
267 kg wet, ~267 kg dry
Launch date (UTC)
2024-10-15 (1 year ago)
Launch vehicle
CHANG ZHENG 6A
Launch site
Taiyaun Space Center, China (TSC)
Object type
Payload
Rocket body
Debris
Shape & HBR
Box + 1 Pan, 5.0 m
Radar Cross Section
13.200 m², Large (>1 m²)

Expand to show TLE details & history
Last TLE update: 4 hours ago

TLE from 4 hours ago
0 QIANFAN-30
1 61563U 24185M   25355.53400116  .00000104  00000-0  14531-3 0  9993
2 61563  88.9808  79.9329 0007686  25.6371 334.5159 13.49989583 69255
Epoch: 2025-12-21T12:48Z
TLE epoch observation values (Epoch: 2025-12-21T12:48:57.700Z)
Latitude
-0.00003°
Longitude
157.34741°
Altitude
1,070.079 km
Speed
7.319 km/s
True Right ascension
05h 19m 43s
True Declination
0° 00' 00"
Sunlit
Object was in full shadow at epoch
Visualization orbit readout
Latitude
Unknown
Longitude
Unknown
Altitude
Unknown
Speed
Unknown
Apparent Right ascension
Unknown
Apparent Declination
Unknown
Sunlit
N/A
Visualization observer readout
Local Sidereal Time
15:49:53
Azimuth
Unknown
Elevation
Unknown
Doppler factor
Unknown
Orbital elements
Apogee altitude
1,075.074 km
Perigee altitude
1,063.625 km
Semi-major axis
7,447.486 km
Eccentricity
0.00077
Inclination
88.9808°
RAAN
79.9329°
Arg. of periapsis
25.6371°
True anomaly
334.47797°
Mean anomaly
334.5159°
Eccentric anomaly
334.49694°
Mean motion
3.37698 °/min
Orbital period
106.6 mins
BSTAR
0.00014531
Loading maneuver chart data...
Computing Atmospheric mass density...
Loading historical data...
Loading historical data...
Loading historical data...
Loading historical data...
Loading historical data...
Loading historical data...
Loading historical data...

Documentation

Showing up to 5 results
|